Retour au catalogue

COSMOS 444

ActifMilitaireLEO
NORAD 5547·PAYLOAD·🇷🇺 Russia

Lancé Oct 13, 1971 depuis Plesetsk Cosmodrome

Loading…

Prochains Passages (prochaines 24 heures)

TLE

FraisSource: Space-Track

Époque: Sep 14, 2026, 14:18 UTC

1 05547U 71086A   26257.59638786  .00000007  00000-0  13273-3 0  9993
2 05547  74.0313 329.4794 0120275 232.5895 126.4168 12.62139513530302

Suivez COSMOS 444 en temps réel avec AllMySat

Download on the App Store